Stations météo

réclame
Mon MeteoGroup
La Rochelle/Ile de Re, France (7316): Température de l'air & dewpoint: 17.01.2019 09:00:00 - 23.01.2019 09:00:00 (CET)La Rochelle/Ile de Re, France (7316): Vitesse du vent & gusts: 17.01.2019 09:00:00 - 23.01.2019 09:00:00 (CET)La Rochelle/Ile de Re, France (7316): Direction du vent: 17.01.2019 09:00:00 - 23.01.2019 09:00:00 (CET)La Rochelle/Ile de Re, France (7316): reduced air pressure: 17.01.2019 09:00:00 - 23.01.2019 09:00:00 (CET)La Rochelle/Ile de Re, France (7316): visibility: 17.01.2019 09:00:00 - 23.01.2019 09:00:00 (CET)La Rochelle/Ile de Re, France (7316): Ensoleillement: 17.01.2019 09:00:00 - 23.01.2019 09:00:00 (CET)La Rochelle/Ile de Re, France (7316): Quantités de précipitations: 17.01.2019 09:00:00 - 23.01.2019 09:00:00 (CET)
Date & Time tt [°C] td [°C] ff [km/h] ff [knt] fx [km/h] fx [knt] dd ppp [hPa] vv [km] sd [min] rr [mm]
23.01.2019 09:00:00 5,7 3,2 31 17 48 26 N 1001,2 59 0 0,0
23.01.2019 08:00:00 6,3 4,0 31 17 49 26 N 999,8 60 0 0,0
23.01.2019 07:00:00 7,3 5,3 29 15 46 25 NNW 998,7 56 0 0,0
23.01.2019 06:00:00 7,8 6,1 23 12 31 17 NW 998,5 47 0 0,0
23.01.2019 05:00:00 7,2 5,7 20 11 35 19 WNW 998,6 47 0 0,0
23.01.2019 04:00:00 7,6 5,4 17 9 29 16 WNW 999,5 53 0 0,0
23.01.2019 03:00:00 7,8 6,3 14 7 23 12 WNW 1000,3 46 0 0,0
23.01.2019 02:00:00 7,4 5,7 10 5 18 10 NW 1001,4 35 0 0,0
23.01.2019 01:00:00 7,4 5,5 13 7 26 14 W 1001,9 58 0 0,0
23.01.2019 00:00:00 7,5 5,6 16 9 30 16 WNW 1002,9 57 0 0,0
22.01.2019 23:00:00 6,8 5,6 11 6 17 9 W 1003,6 56 0 0,0
22.01.2019 22:00:00 6,3 5,3 12 6 16 9 W 1004,1 60 0 0,0
22.01.2019 21:00:00 6,0 5,0 4 2 18 10 SW 1004,8 17 0 0,4
22.01.2019 20:00:00 5,7 4,0 15 8 43 23 NNW 1005,8 5 0 1,6
22.01.2019 19:00:00 7,5 5,5 13 7 22 12 W 1006,0 50 0 0,0
22.01.2019 18:00:00 7,0 5,0 19 11 36 19 W 1007,0 9 0 0,6
22.01.2019 17:00:00 7,9 4,7 9 5 29 16 W 1007,3 19 8 0,0
22.01.2019 16:00:00 8,4 4,4 23 12 39 21 WNW 1007,8 40 11 0,0
22.01.2019 15:00:00 9,2 4,0 24 13 32 17 WNW 1008,2 20 57 0,0
22.01.2019 14:00:00 9,2 5,0 22 12 32 17 NW 1009,0 21 60 0,0
22.01.2019 13:00:00 8,8 5,0 24 13 33 18 NW 1009,7 21 57 0,0
22.01.2019 12:00:00 7,6 4,2 26 14 41 22 NNW 1009,9 9 30 0,0
22.01.2019 11:00:00 7,0 4,5 25 14 42 23 NNW 1009,7 10 0 0,2
22.01.2019 10:00:00 7,4 4,5 29 15 43 23 NW 1009,5 38 0 0,0
22.01.2019 09:00:00 7,6 6,8 4 2 39 21 NNE 1009,8 3,0 0 3,0
22.01.2019 08:00:00 7,9 7,0 21 11 40 22 SSW 1010,8 6 0 1,8
22.01.2019 07:00:00 8,0 7,1 24 13 40 22 SSW 1011,7 18 0 0,2
22.01.2019 06:00:00 7,6 6,5 21 11 35 19 SSW 1012,9 10 0 0,4
22.01.2019 05:00:00 5,8 4,8 22 12 33 18 S 1014,6 12 0 0,0
22.01.2019 04:00:00 6,1 4,7 15 8 29 16 S 1016,2 10 0 0,0
22.01.2019 03:00:00 5,9 4,1 16 9 25 13 S 1017,7 11 0 0,0
22.01.2019 02:00:00 4,3 2,6 10 6 16 9 S 1019,1 10 0 0,0
22.01.2019 01:00:00 1,3 -0,2 9 5 11 6 SSE 1020,2 7 0 0,0
22.01.2019 00:00:00 0,3 -1,1 6 3 9 5 SE 1021,0 5 0 0,0
21.01.2019 23:00:00 2,6 -0,7 5 3 5 3 E 1021,6 13 0 0,0
21.01.2019 22:00:00 2,9 0,5 2 1 11 6 E 1021,9 13 0 0,0
21.01.2019 21:00:00 3,0 -0,3 6 3 17 9 W 1022,9 15 0 0,0
21.01.2019 20:00:00 3,4 0,1 11 6 16 9 W 1023,4 15 0 0,0
21.01.2019 19:00:00 3,5 -0,7 7 4 12 7 WSW 1023,3 17 0 0,0
21.01.2019 18:00:00 4,2 -0,8 5 3 13 7 NW 1023,2 20 27 0,0
21.01.2019 17:00:00 5,3 -0,1 9 5 13 7 NW 1023,5 15 60 0,0
21.01.2019 16:00:00 5,7 -0,4 8 4 15 8 N 1023,4 16 60 0,0
21.01.2019 15:00:00 6,0 0,3 8 4 19 11 N 1023,8 28 58 0,0
21.01.2019 14:00:00 5,6 1,1 9 5 16 9 N 1024,2 20 60 0,0
21.01.2019 13:00:00 4,9 1,6 10 6 16 9 N 1025,0 12 60 0,0
21.01.2019 12:00:00 3,9 1,3 10 5 16 8 NNE 1025,3 11 60 0,0
21.01.2019 11:00:00 2,2 0,3 13 7 21 11 NE 1024,8 9 47 0,0
21.01.2019 10:00:00 0,6 -0,7 14 8 24 13 NNE 1024,6 9 3 0,0
21.01.2019 09:00:00 0,9 -0,1 15 8 22 12 N 1024,3 10 0 0,0
21.01.2019 08:00:00 1,6 0,7 11 6 16 9 N 1023,7 11 0 0,0
21.01.2019 07:00:00 1,8 -0,6 11 6 19 10 NNE 1023,1 38 0 0,0
21.01.2019 06:00:00 3,0 -0,3 12 7 23 12 NNE 1022,9 54 0 0,0
21.01.2019 05:00:00 4,2 -0,4 22 12 30 16 NE 1022,5 60 0 0,0
21.01.2019 04:00:00 4,4 0,9 15 8 32 17 NE 1022,5 60 0 0,0
21.01.2019 03:00:00 4,6 1,3 22 12 31 17 NNE 1022,4 45 0 0,0
21.01.2019 02:00:00 4,1 2,3 13 7 21 11 NNE 1022,0 19 0 0,0
21.01.2019 01:00:00 3,9 2,3 11 6 22 12 N 1021,7 19 0 0,0
21.01.2019 00:00:00 4,5 2,5 16 9 23 13 NNE 1021,2 23 0 0,0
20.01.2019 23:00:00 5,3 3,0 16 9 34 19 NNE 1020,4 20 0 0,0
20.01.2019 22:00:00 5,8 3,0 20 11 35 19 NNE 1019,6 29 0 0,0
20.01.2019 21:00:00 6,4 3,9 23 12 34 19 N 1019,0 17 0 0,0
20.01.2019 20:00:00 7,3 5,3 18 10 28 15 N 1018,4 27 0 0,0
20.01.2019 19:00:00 7,6 5,6 14 7 24 13 N 1017,6 37 0 0,0
20.01.2019 18:00:00 7,8 5,9 16 9 26 14 N 1016,8 38 0 0,0
20.01.2019 17:00:00 8,2 6,2 17 9 26 14 N 1016,0 20 0 0,0
20.01.2019 16:00:00 8,9 5,8 18 10 24 13 N 1015,4 51 0 0,0
20.01.2019 15:00:00 8,9 6,7 9 5 18 10 NW 1015,1 37 5 0,0
20.01.2019 14:00:00 9,5 6,8 11 6 19 11 N 1014,8 42 42 0,0
20.01.2019 13:00:00 8,2 6,7 12 6 18 10 N 1014,8 25 2 0,0
20.01.2019 12:00:00 7,4 6,3 11 6 15 8 N 1014,6 18 0 0,0
20.01.2019 11:00:00 6,7 6,0 7 4 11 6 N 1013,9 16 0 0,0
20.01.2019 10:00:00 6,7 6,3 6 3 7 4 N 1012,9 13 0 0,0
20.01.2019 09:00:00 6,1 5,7 4 2 10 5 NE 1012,1 9 0 0,0
20.01.2019 08:00:00 6,9 5,7 7 4 9 5 WNW 1011,3 60 0 0,0
20.01.2019 07:00:00 7,1 5,7 6 3 12 7 W 1010,8 60 0 0,0
20.01.2019 06:00:00 7,5 5,5 8 5 16 9 WSW 1010,5 60 0 0,0
20.01.2019 05:00:00 7,7 5,7 10 5 18 10 W 1010,4 60 0 0,2
20.01.2019 04:00:00 7,6 7,3 6 3 10 6 WSW 1010,2 18 0 0,0
20.01.2019 03:00:00 6,9 6,5 4 2 7 4 SE 1010,0 8 0 0,0
20.01.2019 02:00:00 7,6 7,2 4 2 7 4 SW 1009,6 14 0 0,0
20.01.2019 01:00:00 7,5 7,2 6 3 10 5 SSW 1009,6 9 0 0,2
20.01.2019 00:00:00 7,4 7,1 6 3 9 5 S 1009,3 8 0 0,0
19.01.2019 23:00:00 7,8 7,4 0 0 8 4 N 1009,0 10 0 0,0
19.01.2019 22:00:00 7,5 7,1 6 3 8 5 S 1008,9 11 0 0,0
19.01.2019 21:00:00 7,4 6,8 6 4 11 6 S 1008,7 13 0 0,0
19.01.2019 20:00:00 7,7 6,8 5 3 10 5 S 1008,6 15 0 0,0
19.01.2019 19:00:00 8,6 7,4 6 3 11 6 SSW 1008,4 29 0 0,0
19.01.2019 18:00:00 9,2 7,3 8 5 16 8 SSW 1008,2 35 21 0,0
19.01.2019 17:00:00 10,8 7,1 10 5 17 9 SW 1008,2 50 60 0,0
19.01.2019 16:00:00 10,9 6,8 11 6 17 9 SW 1008,5 20 50 0,0
19.01.2019 15:00:00 10,9 7,8 11 6 18 10 SSW 1008,7 20 16 0,0
19.01.2019 14:00:00 10,5 7,9 11 6 19 10 SSW 1009,5 39 29 0,0
19.01.2019 13:00:00 9,3 8,1 8 4 17 9 SSE 1010,4 19 25 1,0
19.01.2019 12:00:00 9,3 8,1 13 7 19 10 SSE 1011,1 19 58 0,0
19.01.2019 11:00:00 8,7 7,8 13 7 20 11 S 1011,3 9 45 0,0
19.01.2019 10:00:00 7,6 6,7 12 7 21 11 S 1011,0 19 18 0,0
19.01.2019 09:00:00 6,7 6,3 8 5 12 6 S 1010,8 40 0 0,0
19.01.2019 08:00:00 6,8 5,9 6 3 9 5 S 1010,8 39 0 0,0
19.01.2019 07:00:00 7,3 6,9 4 2 34 19 SW 1010,7 19 0 1,2
19.01.2019 06:00:00 6,1 5,8 4 2 8 5 SE 1010,8 0,6 0 0,0
19.01.2019 05:00:00 7,2 6,6 5 3 11 6 SE 1011,0 18 0 0,0
19.01.2019 04:00:00 7,9 7,5 9 5 18 10 S 1011,4 23 0 0,2
19.01.2019 03:00:00 7,5 6,3 13 7 27 15 S 1011,8 19 0 3,1
19.01.2019 02:00:00 7,5 7,2 19 10 31 17 S 1012,0 3,0 0 1,2
19.01.2019 01:00:00 6,6 6,3 18 10 29 16 SSE 1012,8 8 0 4,6
19.01.2019 00:00:00 6,1 5,7 17 9 29 16 SSE 1013,4 9 0 0,0
18.01.2019 23:00:00 5,8 5,2 16 9 28 15 SSE 1013,7 8 0 0,2
18.01.2019 22:00:00 5,6 4,9 18 10 29 16 SSE 1013,9 9 0 0,0
18.01.2019 21:00:00 6,0 5,0 17 9 29 16 SSE 1014,2 14 0 0,0
18.01.2019 20:00:00 6,2 4,7 18 10 27 14 SSE 1014,7 19 0 0,0
18.01.2019 19:00:00 6,5 4,3 14 8 21 12 SE 1015,1 35 0 0,0
18.01.2019 18:00:00 6,9 4,7 13 7 19 10 SE 1015,4 29 22 0,0
18.01.2019 17:00:00 8,4 5,3 11 6 17 9 SE 1015,7 31 18 0,0
18.01.2019 16:00:00 8,3 5,2 12 7 18 10 SE 1016,0 36 0 0,0
18.01.2019 15:00:00 8,3 4,7 10 5 16 8 SSE 1016,6 39 8 0,0
18.01.2019 14:00:00 8,1 4,5 10 6 17 9 S 1017,1 36 52 0,0
18.01.2019 13:00:00 6,7 4,4 10 5 15 8 SSE 1017,8 20 24 0,0
18.01.2019 12:00:00 5,5 3,7 10 6 17 9 SE 1018,6 20 29 0,0
18.01.2019 11:00:00 4,2 2,9 10 5 16 9 SE 1019,0 20 25 0,0
18.01.2019 10:00:00 2,7 1,7 9 5 16 9 ESE 1019,1 18 7 0,0
18.01.2019 09:00:00 2,0 1,3 10 6 16 9 ESE 1018,9 17 0 0,0
18.01.2019 08:00:00 1,9 1,0 12 6 19 11 ESE 1019,0 19 0 0,0
18.01.2019 07:00:00 2,2 1,5 13 7 16 9 ESE 1019,1 20 0 0,0
18.01.2019 06:00:00 2,1 1,4 12 7 16 9 E 1019,4 17 0 0,0
18.01.2019 05:00:00 2,6 1,4 9 5 13 7 E 1019,8 19 0 0,0
18.01.2019 04:00:00 2,6 1,7 9 5 14 7 ESE 1020,0 20 0 0,0
18.01.2019 03:00:00 3,0 2,0 11 6 14 8 E 1020,2 20 0 0,0
18.01.2019 02:00:00 3,5 2,5 9 5 11 6 NE 1020,4 19 0 0,0
18.01.2019 01:00:00 3,2 2,2 8 4 16 9 NE 1020,7 16 0 0,0
18.01.2019 00:00:00 3,9 3,2 10 6 13 7 NE 1020,5 16 0 0,0
17.01.2019 23:00:00 4,8 3,5 9 5 15 8 N 1020,3 20 0 0,0
17.01.2019 22:00:00 5,8 4,6 11 6 16 9 NNW 1020,0 20 0 0,0
17.01.2019 21:00:00 6,4 4,9 11 6 20 11 NW 1019,3 20 0 0,0
17.01.2019 20:00:00 6,0 4,6 12 7 23 13 WNW 1019,2 20 0 0,0
17.01.2019 19:00:00 6,7 4,5 13 7 22 12 W 1018,8 41 0 0,0
17.01.2019 18:00:00 7,6 4,4 10 6 21 11 W 1018,4 52 15 0,0
17.01.2019 17:00:00 9,1 5,3 16 8 27 15 WNW 1018,1 44 60 0,0
17.01.2019 16:00:00 9,9 5,1 20 11 28 15 WNW 1017,8 49 60 0,0
17.01.2019 15:00:00 10,4 5,0 19 10 29 16 WNW 1017,4 42 60 0,0
17.01.2019 14:00:00 10,3 5,1 20 11 26 14 WNW 1017,9 20 60 0,0
17.01.2019 13:00:00 10,0 6,0 14 7 19 10 WNW 1018,1 20 60 0,0
17.01.2019 12:00:00 9,6 5,6 14 8 23 12 NW 1018,2 60 60 0,0
17.01.2019 11:00:00 9,2 6,3 16 8 23 12 NW 1017,7 20 60 0,0
17.01.2019 10:00:00 8,1 6,2 14 7 21 11 WNW 1016,9 38 50 0,0
17.01.2019 09:00:00 5,7 3,9 11 6 25 14 W 1016,0 45 0 0,0

tt = Température de l'air
td = dewpoint
ff = Vitesse du vent
fx = gusts
dd = Direction du vent
ppp = reduced air pressure
vv = visibility
sd = Ensoleillement
rr = Quantités de précipitations

stations d'obs. à proximité